Voltar ao catálogo

STARLINK-31479

AtivoComunicaçõesVLEO
NORAD 59316·PAYLOAD·🇺🇸 United States

Lançado Mar 24, 2024 de Cape Canaveral Space Force Station

Loading…

Próximas Passagens (próximas 24 horas)

TLE

AtualizadoSource: CelesTrak SupGP

Época: Sep 14, 2026, 21:26 UTC

1 59316C 24056W   26257.89354167  .00041981  00000+0  15219-2 0  2575
2 59316  43.0026 246.2564 0001326 265.6859  88.0171 15.27528231    15

Acompanhe STARLINK-31479 em tempo real com AllMySat

Download on the App Store